Tracking 25734 objects as of 28-May-2022
HD Live streaming from Space Station
objects crossing your sky now

ERS 9

Track ERS 9 now!
10-day predictions
ERS 9 is classified as:


NORAD ID: 635
Int'l Code: 1963-030B
Perigee: 3,649.8 km
Apogee: 3,766.9 km
Inclination: 88.4 °
Period: 167.8 minutes
Semi major axis: 10079 km
RCS: 0.0885 m2 (small)
Launch date: July 19, 1963
Source: United States (US)
Launch site: AIR FORCE WESTERN TEST RANGE (AFWTR)
aabbcc
Your satellite tracking list
Your tracking list is empty




NASA's NSSDC Master Catalog

Two Line Element Set (TLE):
1 00635U 63030B   22145.82284197  .00000013  00000-0  51891-2 0  9991
2 00635  88.3833 298.3371 0058048  80.0830 280.6566  8.57933517843226
Source of the keplerian elements: AFSPC